Kekaha, HI

9:18 AM HST on February 25, 2017 (GMT -1000)
Barking Sands PMRF

Weather History for PHBK - August, 2014

Change the Weather History Date:

Wednesday, August 27, 2014

  Actual Average Record
Temperature  
Mean Temperature 78 °F -  
Max Temperature 84 °F 89 °F 94 °F (1967)
Min Temperature 72 °F 67 °F 64 °F (1955)
Cooling Degree Days 13    
Growing Degree Days 28 (Base 50)    
Moisture  
Dew Point 33 °F    
Average Humidity 21    
Maximum Humidity 61    
Minimum Humidity 13    
Precipitation  
Precipitation 0.00 in - - ()
Sea Level Pressure  
Sea Level Pressure 29.92 in    
Wind  
Wind Speed 4 mph (South)    
Max Wind Speed 12 mph    
Max Gust Speed -    
Visibility 10 miles    
Events Rain    
Averages and records for this station are not official NWS values.
T = Trace of Precipitation, MM = Missing Value Source: NWS Daily Summary

Daily Weather History Graph

Daily Weather History Graph

Search for Another Location

Airport or City:

Trip Planner

Search our weather history database for the weather conditions in past years. The results will help you decide how hot, cold, wet, or windy it might be!

Date:

Astronomy

Aug. 27, 2014 Rise Set
Actual Time 6:20 AM HST 7:00 PM HST
Civil Twilight 5:57 AM HST 7:22 PM HST
Nautical Twilight 5:31 AM HST 7:49 PM HST
Astronomical Twilight 5:03 AM HST 8:16 PM HST
Moon 8:07 AM HST (8/27) 8:21 PM HST (8/27)
Length of Visible Light 13h 25m
Length of Day
12h 39m
Waxing Crescent, 5% of the Moon is Illuminated
Aug 27
Waxing Crescent
Sep 2
First Quarter
Sep 8
Full
Sep 15
Last Quarter
Sep 23
New

Hourly Weather History & Observations

Time (HST) Temp. Dew Point Humidity Pressure Visibility Wind Dir Wind Speed Gust Speed Precip Events Conditions
12:56 AM 75.9 °F 28.0 °F 17% 29.94 in 10.0 mi Calm Calm - N/A   Mostly Cloudy
1:56 AM 75.0 °F 30.0 °F 19% 29.94 in 10.0 mi ESE 4.6 mph - N/A   Overcast
2:56 AM 77.0 °F 26.1 °F 15% 29.93 in 10.0 mi Calm Calm - 0.00 in   Overcast
3:56 AM 75.0 °F 28.0 °F 18% 29.92 in 10.0 mi NE 3.5 mph - N/A   Overcast
4:56 AM 73.9 °F 28.0 °F 18% 29.92 in 10.0 mi Calm Calm - N/A   Mostly Cloudy
5:56 AM 72.0 °F 28.0 °F 20% 29.92 in 10.0 mi NE 3.5 mph - N/A   Mostly Cloudy
6:56 AM 75.9 °F 28.0 °F 17% 29.94 in 10.0 mi Calm Calm - N/A   Overcast
7:56 AM 80.1 °F 28.0 °F 15% 29.95 in 10.0 mi South 4.6 mph - N/A   Mostly Cloudy
8:56 AM 82.0 °F 27.0 °F 13% 29.95 in 10.0 mi SW 4.6 mph - N/A   Scattered Clouds
9:56 AM 82.0 °F 27.0 °F 13% 29.96 in 10.0 mi West 6.9 mph - N/A   Scattered Clouds
10:56 AM 82.9 °F 28.0 °F 14% 29.95 in 10.0 mi WSW 8.1 mph - N/A   Overcast
11:56 AM 84.9 °F 28.0 °F 13% 29.94 in 10.0 mi West 8.1 mph - N/A   Overcast
12:56 PM 82.9 °F 28.0 °F 14% 29.93 in 10.0 mi SW 5.8 mph - N/A   Overcast
1:56 PM 82.9 °F 28.0 °F 14% 29.91 in 10.0 mi SW 8.1 mph - N/A   Overcast
2:56 PM 82.0 °F 43.0 °F 25% 29.90 in 10.0 mi SW 8.1 mph - 0.00 in Rain Light Rain
3:56 PM 84.0 °F 44.1 °F 25% 29.88 in 10.0 mi SW 11.5 mph - 0.00 in   Partly Cloudy
5:56 PM 84.0 °F 37.0 °F 19% 29.88 in 10.0 mi WNW 4.6 mph - N/A   Clear
6:30 PM 82.4 °F 42.8 °F 25% 29.88 in 10.0 mi South 5.8 mph - N/A   Partly Cloudy
6:56 PM 80.1 °F 33.1 °F 18% 29.89 in 10.0 mi SSE 3.5 mph - N/A   Clear
7:56 PM 75.9 °F 36.0 °F 23% 29.92 in 10.0 mi ENE 5.8 mph - N/A   Clear
8:56 PM 73.9 °F 33.1 °F 22% 29.93 in 10.0 mi ENE 3.5 mph - N/A   Clear
9:56 PM 72.0 °F 57.9 °F 61% 29.94 in 10.0 mi ENE 5.8 mph - N/A   Clear
10:56 PM 72.0 °F 28.9 °F 20% 29.94 in 10.0 mi ENE 8.1 mph - N/A   Clear
11:56 PM 73.0 °F 43.0 °F 34% 29.93 in 10.0 mi East 4.6 mph - N/A   Clear